EW7336 Weather Reports


time (UTC)temp
F
wind
direction
speed
knots
gust
knots
rain 1hr
in
rain 24hr
in
rain mn
in
humidity
%
barometer
mb
20260905204528 92 322 0.9 4.3 0.00 0.00 0.00 58 1009.9
20260905203026 92 306 0.0 5.2 0.00 0.00 0.00 58 1010.0
20260905201531 91 311 0.9 3.5 0.00 0.00 0.00 58 1010.3
20260905200029 91 240 0.9 4.3 0.00 0.00 0.00 58 1010.5
20260905194517 91 219 0.0 2.6 0.00 0.00 0.00 57 1010.6
20260905193025 90 221 1.7 8.7 0.00 0.00 0.00 58 1010.7
20260905191512 90 202 2.6 6.1 0.00 0.00 0.00 60 1010.9
20260905190014 89 187 2.6 7.0 0.00 0.00 0.00 59 1011.2
20260905184515 89 184 0.9 5.2 0.00 0.00 0.00 60 1011.3
20260905183105 88 211 2.6 7.8 0.00 0.00 0.00 61 1011.4
20260905181510 88 211 3.5 7.8 0.00 0.00 0.00 61 1011.4
20260905180100 87 214 3.5 8.7 0.00 0.00 0.00 60 1011.4
20260905174609 87 207 3.5 7.0 0.00 0.00 0.00 61 1011.5
20260905173109 87 189 0.9 5.2 0.00 0.00 0.00 61 1011.7
20260905171553 86 258 1.7 6.1 0.00 0.00 0.00 63 1012.0
20260905170053 85 217 1.7 4.3 0.00 0.00 0.00 62 1012.2
20260905164550 85 194 0.9 7.0 0.00 0.00 0.00 63 1012.5
20260905163052 84 185 0.9 3.5 0.00 0.00 0.00 62 1012.7
20260905161541 84 205 0.0 1.7 0.00 0.00 0.00 62 1012.9
20260905160048 82 197 0.9 4.3 0.00 0.00 0.00 66 1012.8
20260905154539 82 169 0.0 6.1 0.00 0.00 0.00 66 1012.6
20260905153029 82 182 0.0 4.3 0.00 0.00 0.00 63 1012.3
20260905151524 81 123 0.0 2.6 0.00 0.00 0.00 64 1012.5
20260905150026 80 137 0.0 4.3 0.00 0.00 0.00 65 1012.6
20260905144537 79 113 0.0 3.5 0.00 0.00 0.00 67 1012.7
20260905143019 78 109 0.0 4.3 0.00 0.00 0.00 70 1012.6
20260905141507 77 71 0.0 5.2 0.00 0.00 0.00 73 1012.7
20260905140003 76 63 0.0 1.7 0.00 0.00 0.00 76 1013.1
20260905134607 75 53 0.0 2.6 0.00 0.00 0.00 78 1013.3
20260905133058 74 136 0.0 1.7 0.00 0.00 0.00 80 1013.4
20260905131556 73 157 0.0 2.6 0.00 0.00 0.00 82 1013.6
20260905130055 72 80 0.0 0.9 0.00 0.00 0.00 84 1013.7
20260905124548 71 155 0.0 2.6 0.00 0.00 0.00 85 1013.6
20260905123045 71 69 0.0 2.6 0.00 0.00 0.00 86 1013.5
20260905121544 70 53 0.0 0.9 0.00 0.00 0.00 86 1013.6
20260905120042 70 53 0.0 1.7 0.00 0.00 0.00 86 1013.4
20260905114610 71 47 0.0 1.7 0.00 0.00 0.00 85 1013.4
20260905113038 71 109 0.0 1.7 0.00 0.00 0.00 84 1013.5
20260905111542 71 123 0.0 4.3 0.00 0.00 0.00 84 1013.5
20260905110034 72 28 1.7 5.2 0.00 0.00 0.00 86 1013.3
20260905104534 72 63 0.9 6.1 0.00 0.00 0.00 89 1013.1
20260905103035 72 46 0.9 9.6 0.00 0.00 0.00 90 1013.5
20260905101527 72 76 4.3 10.4 0.00 0.00 0.00 95 1013.1
20260905100027 72 51 0.0 0.0 0.00 0.00 0.00 95 1011.8
20260905094526 72 51 0.0 0.0 0.00 0.00 0.00 95 1011.7
20260905093029 72 51 0.0 0.0 0.00 0.00 0.00 95 1011.6
20260905091525 72 51 0.0 0.0 0.00 0.00 0.00 95 1011.4
20260905090024 72 51 0.0 0.0 0.00 0.00 0.00 95 1011.4
20260905084523 72 51 0.0 0.0 0.00 0.00 0.00 95 1011.7
20260905083023 72 51 0.0 0.9 0.00 0.00 0.00 95 1011.5
20260905081522 72 51 0.0 0.0 0.00 0.00 0.00 95 1011.3
20260905080022 72 51 0.0 0.0 0.00 0.00 0.00 94 1011.0
20260905074522 72 51 0.0 0.0 0.00 0.00 0.00 94 1010.9
20260905073032 72 51 0.0 0.0 0.00 0.00 0.00 95 1010.8
20260905071524 72 51 0.0 0.0 0.00 0.00 0.00 95 1010.7
20260905070017 72 51 0.0 0.0 0.00 0.00 0.00 95 1010.9
20260905064514 72 51 0.0 0.0 0.00 0.00 0.00 94 1011.3
20260905063012 72 51 0.0 0.0 0.00 0.00 0.00 94 1011.5
20260905061510 72 51 0.0 0.0 0.00 0.00 0.00 94 1011.6
20260905060014 72 51 0.0 0.0 0.00 0.00 0.00 94 1011.8
20260905054507 72 51 0.0 0.0 0.00 0.00 0.00 94 1011.9
20260905053005 72 51 0.0 0.0 0.00 0.00 0.00 94 1012.0
20260905051503 72 51 0.0 0.0 0.00 0.00 0.00 94 1012.2
20260905050107 72 51 0.0 0.0 0.00 0.00 0.00 93 1012.2
20260905044602 73 51 0.0 0.0 0.00 0.00 0.00 93 1012.5
20260905043056 73 51 0.0 0.0 0.00 0.00 0.00 93 1012.5
20260905041552 73 51 0.0 0.0 0.00 0.00 0.00 93 1012.4
20260905040055 73 51 0.0 0.0 0.00 0.00 0.00 92 1012.4
20260905034605 73 51 0.0 0.0 0.00 0.00 0.00 92 1012.4
20260905033102 73 51 0.0 0.0 0.00 0.00 0.00 92 1012.5
20260905031548 73 51 0.0 0.0 0.00 0.00 0.00 91 1012.4
20260905030047 74 51 0.0 0.0 0.00 0.00 0.00 91 1012.3
20260905024550 74 51 0.0 0.0 0.00 0.00 0.00 91 1012.3
20260905023120 74 51 0.0 0.0 0.00 0.00 0.00 90 1012.3
20260905021546 75 51 0.0 0.0 0.00 0.00 0.00 89 1012.4
20260905020045 75 51 0.0 0.0 0.00 0.00 0.00 89 1012.3
20260905014544 76 51 0.0 0.0 0.00 0.00 0.00 87 1012.0
20260905013044 76 51 0.0 0.0 0.00 0.00 0.00 86 1011.9
20260905011554 77 51 0.0 0.0 0.00 0.00 0.00 84 1011.9
20260905010044 78 51 0.0 0.0 0.00 0.00 0.00 82 1011.8
20260905004542 79 51 0.0 0.0 0.00 0.00 0.00 80 1011.7
20260905003043 81 51 0.0 0.9 0.00 0.00 0.00 75 1011.7
20260905001542 82 51 0.0 0.0 0.00 0.00 0.00 72 1011.8
20260905000046 84 51 0.0 0.9 0.00 0.00 0.00 68 1011.8
20260904234539 86 51 0.0 1.7 0.00 0.00 0.00 66 1011.6
20260904233039 87 52 0.0 0.9 0.00 0.00 0.00 63 1011.5
20260904231537 89 52 0.0 1.7 0.00 0.00 0.00 62 1011.4
20260904230037 90 35 0.0 0.9 0.00 0.00 0.00 61 1011.6
20260904224535 90 35 0.0 0.9 0.00 0.00 0.00 59 1011.5
20260904223035 90 35 0.0 1.7 0.00 0.00 0.00 58 1011.7
20260904221533 90 35 0.0 3.5 0.00 0.00 0.00 59 1011.8
20260904220058 92 40 0.0 1.7 0.00 0.00 0.00 60 1011.7
20260904214531 93 39 0.0 1.7 0.00 0.00 0.00 59 1011.9
20260904213034 93 39 0.0 1.7 0.00 0.00 0.00 60 1012.0
20260904211528 94 46 0.9 2.6 0.00 0.00 0.00 59 1012.1
20260904210034 92 44 0.0 2.6 0.00 0.00 0.00 59 1012.4